[[{"header":{"parameterUnit":"m.s-1","parameterCategory":1,"la1":30.2991,"la2":30.254,"lo1":-89.0895,"lo2":-89.0444,"dy":0.0017,"dx":0.0017,"nx":28,"ny":28,"refTime":"2024-03-30T09:00:00:Z","depth":0,"parameterNumber":2,"parameterNumberName":"U-component_of_WINDS"},"data":[0,0,0,0,0,0,0,0,0,0,0,0,0,0,0,0,0,0,0,0,0,0,0,0,0,0,0,0,0,0,0,0,0,0,0,0,0,0,0,0,0,0,0,0,0,0,0,0,0,0,0,0,0,0,0,0,0,0,-1.7806,-1.7806,0,-1.7774,-1.7773,-1.7773,-1.7718,-1.7717,-1.7716,-1.7715,-1.7681,-1.7681,-1.7681,0,0,0,0,0,0,0,0,0,0,0,0,0,-1.7822,-1.7822,-1.7806,-1.7806,-1.7806,-1.7774,-1.7773,-1.7773,-1.7718,-1.7717,-1.7715,-1.7714,-1.7681,-1.7681,-1.7681,0,0,0,0,0,0,0,0,0,0,0,0,0,-1.7805,-1.7822,-1.7806,-1.7774,-1.7771,-1.7774,-1.7773,-1.7773,-1.7718,-1.7716,-1.7715,-1.7714,-1.7681,-1.7681,-1.7681,-1.7712,0,0,-1.7681,-1.7681,0,0,0,0,0,0,0,0,-1.7806,-1.7804,-1.7779,-1.7777,-1.7773,-1.7748,-1.7766,-1.7752,-1.7718,-1.7738,-1.7715,-1.7713,-1.7704,-1.7703,-1.77,-1.7711,-1.7709,-1.7681,-1.7681,-1.7681,-1.7681,0,0,0,0,0,0,0,-1.7807,-1.7806,-1.7793,-1.7779,-1.7775,-1.7762,-1.7758,-1.7763,-1.773,-1.7736,-1.7732,-1.7729,-1.7702,-1.77,-1.7699,-1.7709,-1.7681,-1.7681,-1.7681,-1.7681,-1.7743,-1.7745,0,0,0,0,0,0,-1.7813,-1.7807,-1.7794,-1.7792,-1.7786,-1.7763,-1.7758,-1.7758,-1.773,-1.7724,-1.773,-1.7727,-1.77,-1.7699,-1.7697,-1.773,-1.7681,-1.7681,-1.7682,-1.7742,-1.7743,-1.7745,0,0,0,0,0,0,-1.7814,-1.7813,-1.7796,-1.7799,-1.7795,-1.7764,-1.7764,-1.7758,-1.7755,-1.7726,-1.772,-1.7734,-1.7699,-1.7697,-1.7709,-1.7729,-1.7682,-1.7682,-1.774,-1.7742,-1.7744,-1.7799,0,0,0,0,0,0,-1.7814,-1.7813,-1.7824,-1.7799,-1.7795,-1.7808,-1.7765,-1.7758,-1.7755,-1.775,-1.7727,-1.7722,-1.7698,-1.7709,-1.7709,-1.7728,-1.7682,-1.7738,-1.7741,-1.7744,-1.7795,-1.7802,-1.7809,0,0,0,0,0,-1.7815,-1.7841,-1.7825,-1.7824,-1.7809,-1.7809,-1.7807,-1.7778,-1.7757,-1.7768,-1.775,-1.7723,-1.7727,-1.7711,-1.771,-1.7729,-1.7736,-1.774,-1.7743,-1.7791,-1.7801,-1.7809,0,0,0,0,0,0,-1.7869,-1.7837,-1.7819,-1.7838,-1.7827,-1.78,-1.7812,-1.779,-1.7784,-1.7779,-1.7745,-1.774,-1.7756,-1.7744,-1.7726,-1.7758,-1.7728,-1.7731,-1.7764,-1.7773,-1.778,-1.7781,-1.7682,0,0,0,0,0,-1.7883,-1.7886,-1.7858,-1.7877,-1.7872,-1.7844,-1.7843,-1.7822,-1.7809,-1.7804,-1.7786,-1.7775,-1.7773,-1.7773,-1.777,-1.7794,-1.7787,-1.7807,-1.7814,-1.782,-1.7823,-1.7833,-1.7841,-1.7757,-1.7757,-1.7757,0,0,-1.7912,-1.7895,-1.7899,-1.7887,-1.7876,-1.788,-1.784,-1.7845,-1.7847,-1.7805,-1.7814,-1.7801,-1.7786,-1.7804,-1.781,-1.7794,-1.7846,-1.7825,-1.783,-1.7829,-1.7838,-1.7846,-1.7853,-1.7759,-1.7759,-1.7759,0,0,-1.7965,-1.7954,-1.7967,-1.7958,-1.7941,-1.7922,-1.7926,-1.7903,-1.7893,-1.7902,-1.787,-1.7873,-1.7871,-1.7861,-1.7856,-1.7909,-1.7883,-1.7909,-1.7945,-1.7956,-1.7962,-1.7968,-1.7984,-1.7991,-1.7912,-1.7913,-1.7913,0,-1.8003,-1.8006,-1.7978,-1.7985,-1.798,-1.7943,-1.7957,-1.7949,-1.7933,-1.7931,-1.7914,-1.7911,-1.7899,-1.7913,-1.7925,-1.7923,-1.7926,-1.791,-1.7964,-1.7969,-1.7974,-1.7989,-1.7996,-1.7916,-1.7915,-1.7915,-1.7915,0,-1.8053,-1.8056,-1.8069,-1.8054,-1.8052,-1.8063,-1.8036,-1.8037,-1.8018,-1.8001,-1.801,-1.7995,-1.7987,-1.799,-1.7971,-1.8002,-1.7992,-1.797,-1.7938,-1.7985,-1.7999,-1.8005,-1.792,-1.7919,-1.7918,-1.7917,0,0,-1.8136,-1.8107,-1.8112,-1.8104,-1.8085,-1.8087,-1.8096,-1.809,-1.809,-1.8082,-1.8088,-1.8089,-1.8068,-1.8063,-1.8043,-1.8053,-1.8093,-1.8029,-1.8028,-1.8039,-1.8123,-1.8138,-1.8145,-1.8077,-1.8078,-1.8079,-1.8124,0,-1.8183,-1.8196,-1.8172,-1.8191,-1.8193,-1.8159,-1.8167,-1.8156,-1.8141,-1.8141,-1.8125,-1.8125,-1.8099,-1.8095,-1.8104,-1.8086,-1.8109,-1.8083,-1.8081,-1.8081,-1.8083,-1.8153,-1.8168,-1.8211,-1.8129,-1.813,-1.8131,0,-1.8239,-1.8233,-1.8252,-1.8232,-1.8232,-1.8239,-1.8231,-1.8232,-1.8219,-1.8208,-1.8203,-1.8179,-1.8187,-1.8159,-1.8168,-1.8151,-1.815,-1.8141,-1.8142,-1.8138,-1.8107,-1.8148,-1.8224,-1.823,-1.814,-1.8139,-1.8138,0,-1.8295,-1.8292,-1.8303,-1.8298,-1.8275,-1.8281,-1.8272,-1.8258,-1.8255,-1.8249,-1.8247,-1.8242,-1.8238,-1.8235,-1.8211,-1.8193,-1.8223,-1.8193,-1.8212,-1.8213,-1.8217,-1.8217,-1.8291,-1.8222,-1.8221,-1.8221,-1.8221,0,-1.8349,-1.8361,-1.8327,-1.8334,-1.8347,-1.832,-1.8333,-1.8321,-1.8309,-1.8312,-1.8284,-1.8287,-1.8257,-1.8257,-1.8239,-1.8249,-1.8248,-1.8238,-1.8233,-1.8239,-1.824,-1.8235,-1.8231,-1.8223,-1.8223,-1.8222,-1.8222,0,-1.8412,-1.839,-1.8399,-1.8377,-1.8372,-1.8383,-1.8364,-1.8369,-1.8353,-1.8358,-1.8357,-1.8332,-1.8331,-1.8308,-1.8303,-1.829,-1.8307,-1.8297,-1.8311,-1.8306,-1.8326,-1.8324,-1.8397,-1.8405,-1.8333,-1.8334,-1.8335,0,-1.8445,-1.8454,-1.8434,-1.8434,-1.8426,-1.8427,-1.8425,-1.8399,-1.8397,-1.8384,-1.8391,-1.8388,-1.8383,-1.8384,-1.8365,-1.8361,-1.8349,-1.8376,-1.8348,-1.8354,-1.8346,-1.8345,-1.8345,-1.838,-1.8381,-1.8382,-1.8382,0,-1.8507,-1.8497,-1.8494,-1.8488,-1.8487,-1.8481,-1.8473,-1.8475,-1.8447,-1.8447,-1.8446,-1.8443,-1.8437,-1.8434,-1.8427,-1.8417,-1.8395,-1.8392,-1.8396,-1.8401,-1.8407,-1.8401,-1.8323,-1.8389,-1.8389,-1.8388,-1.8388,-1.8388,-1.8555,-1.8561,-1.8547,-1.8546,-1.8538,-1.8532,-1.8535,-1.852,-1.8519,-1.8512,-1.8498,-1.8499,-1.8486,-1.8474,-1.8466,-1.8467,-1.8453,-1.8459,-1.846,-1.8461,-1.8464,-1.841,-1.8466,-1.8465,-1.8465,-1.8465,-1.8465,0,-1.8613,-1.8603,-1.8602,-1.8593,-1.8592,-1.8573,-1.8564,-1.8564,-1.8565,-1.8556,-1.8552,-1.8551,-1.8549,-1.8531,-1.8526,-1.8529,-1.8519,-1.8529,-1.8527,-1.8524,-1.8478,-1.8474,-1.8537,-1.8537,-1.8537,-1.8537,-1.8537,-1.8537,-1.8643,-1.8652,-1.864,-1.8644,-1.8634,-1.8635,-1.8631,-1.8626,-1.8618,-1.8618,-1.8615,-1.8604,-1.8591,-1.8585,-1.8582,-1.8577,-1.8575,-1.8588,-1.8579,-1.8535,-1.8528,-1.8521,-1.8517,-1.8589,-1.8589,-1.8626,-1.8626,-1.8626]},{"header":{"parameterUnit":"m.s-1","parameterCategory":1,"la1":30.2991,"la2":30.254,"lo1":-89.0895,"lo2":-89.0444,"dy":0.0017,"dx":0.0017,"nx":28,"ny":28,"refTime":"2024-03-30T09:00:00:Z","depth":0,"parameterNumber":3,"parameterNumberName":"V-component_of_WINDS"},"data":[0,0,0,0,0,0,0,0,0,0,0,0,0,0,0,0,0,0,0,0,0,0,0,0,0,0,0,0,0,0,0,0,0,0,0,0,0,0,0,0,0,0,0,0,0,0,0,0,0,0,0,0,0,0,0,0,0,0,3.1551,3.1551,0,3.1561,3.1561,3.1561,3.1623,3.1624,3.1626,3.1627,3.1633,3.1632,3.1631,0,0,0,0,0,0,0,0,0,0,0,0,0,3.1584,3.1583,3.1551,3.1551,3.1552,3.1561,3.1561,3.1561,3.1623,3.1625,3.1626,3.1628,3.1634,3.1632,3.1631,0,0,0,0,0,0,0,0,0,0,0,0,0,3.1579,3.1583,3.1551,3.1583,3.1586,3.1561,3.1561,3.1561,3.1622,3.1625,3.1627,3.1629,3.1634,3.1632,3.163,3.1574,0,0,3.1625,3.1624,0,0,0,0,0,0,0,0,3.1579,3.1578,3.1579,3.1581,3.1585,3.1593,3.1575,3.1565,3.1622,3.1608,3.1627,3.163,3.1618,3.1617,3.1614,3.1574,3.1574,3.1625,3.1623,3.1623,3.1622,0,0,0,0,0,0,0,3.158,3.1578,3.1555,3.1579,3.1582,3.1597,3.1599,3.1573,3.16,3.161,3.1614,3.1615,3.162,3.1616,3.1615,3.1574,3.1625,3.1623,3.1622,3.1621,3.149,3.1488,0,0,0,0,0,0,3.1576,3.1578,3.1555,3.1555,3.1588,3.1594,3.1596,3.1588,3.1601,3.1605,3.1613,3.1618,3.1618,3.1617,3.1615,3.1551,3.1623,3.1621,3.162,3.1493,3.149,3.1487,0,0,0,0,0,0,3.1576,3.1573,3.1554,3.1568,3.1567,3.1591,3.1582,3.1587,3.1583,3.1603,3.1608,3.1604,3.162,3.1618,3.1584,3.1552,3.162,3.1618,3.1495,3.1492,3.1489,3.1421,0,0,0,0,0,0,3.1577,3.1573,3.1552,3.1567,3.1566,3.1524,3.158,3.1586,3.158,3.1587,3.1596,3.16,3.1621,3.1587,3.1582,3.155,3.1617,3.1498,3.1494,3.149,3.1426,3.1415,3.1406,0,0,0,0,0,3.1578,3.1531,3.155,3.1547,3.154,3.1522,3.1521,3.1548,3.1577,3.1556,3.157,3.1599,3.1556,3.1583,3.1578,3.1545,3.1501,3.1495,3.149,3.143,3.1417,3.1406,0,0,0,0,0,0,3.1509,3.1533,3.1555,3.1512,3.1515,3.1532,3.1506,3.1533,3.1526,3.1532,3.1564,3.1566,3.1528,3.1533,3.1562,3.1492,3.1534,3.1527,3.149,3.1478,3.1468,3.1467,3.1615,0,0,0,0,0,3.1489,3.1473,3.1495,3.1455,3.1455,3.148,3.1473,3.1494,3.1498,3.1499,3.1509,3.151,3.1498,3.1488,3.1477,3.1428,3.1431,3.1403,3.1393,3.1385,3.1378,3.1354,3.1342,3.147,3.147,3.147,0,0,3.1447,3.1459,3.1446,3.1441,3.1446,3.1428,3.1481,3.1459,3.1446,3.1495,3.1465,3.1473,3.1476,3.1435,3.1417,3.1438,3.1345,3.1378,3.1371,3.137,3.1348,3.1336,3.1325,3.1466,3.1467,3.1468,0,0,3.1362,3.1369,3.1337,3.1341,3.1348,3.1366,3.1358,3.1373,3.138,3.1351,3.1388,3.1373,3.1349,3.1351,3.1349,3.1267,3.1295,3.1263,3.1211,3.1187,3.1177,3.1168,3.114,3.1129,3.1257,3.1257,3.1257,0,3.1308,3.1284,3.1317,3.1294,3.1291,3.1337,3.1305,3.1307,3.1309,3.1306,3.133,3.1304,3.1309,3.1269,3.125,3.1246,3.1239,3.1261,3.1176,3.1167,3.116,3.1133,3.1122,3.1253,3.1253,3.1254,3.1254,0,3.1219,3.1202,3.1175,3.1179,3.1173,3.1145,3.1173,3.1163,3.1186,3.1201,3.1171,3.118,3.1172,3.1165,3.1185,3.1129,3.1142,3.117,3.1212,3.1143,3.1119,3.1109,3.1247,3.1249,3.125,3.1251,0,0,3.1088,3.1112,3.1102,3.1105,3.1118,3.1105,3.108,3.1075,3.1066,3.1066,3.1047,3.1027,3.1055,3.1052,3.1074,3.1053,3.0989,3.1084,3.1085,3.1067,3.0929,3.0907,3.0895,3.1008,3.1006,3.1005,3.0929,0,3.1006,3.0967,3.0996,3.0951,3.0936,3.0981,3.0959,3.0964,3.0978,3.0967,3.0983,3.0969,3.1006,3.1005,3.0986,3.1001,3.0962,3.1007,3.0989,3.0988,3.0987,3.0882,3.0858,3.0785,3.0919,3.0918,3.0916,0,3.0905,3.0905,3.0858,3.0876,3.0871,3.0851,3.085,3.0839,3.0847,3.0858,3.0857,3.0885,3.0862,3.0904,3.0873,3.0903,3.0898,3.0904,3.0902,3.0901,3.0948,3.0878,3.0763,3.0752,3.0902,3.0903,3.0904,0,3.0815,3.0802,3.0774,3.0775,3.0795,3.078,3.0788,3.0798,3.0793,3.0792,3.079,3.0785,3.0782,3.0778,3.0803,3.0832,3.0769,3.0814,3.0778,3.0778,3.0762,3.0763,3.0645,3.0759,3.0759,3.0759,3.076,0,3.0721,3.0691,3.0734,3.0716,3.0684,3.0719,3.0686,3.0698,3.0707,3.0692,3.073,3.0715,3.075,3.0739,3.0759,3.0731,3.0729,3.0738,3.0744,3.0735,3.0733,3.0731,3.0737,3.0757,3.0757,3.0758,3.0758,0,3.0614,3.0642,3.0614,3.0636,3.0641,3.0617,3.0636,3.062,3.0638,3.0619,3.0616,3.0644,3.0633,3.0659,3.0651,3.0665,3.0625,3.0638,3.0622,3.0626,3.059,3.0593,3.0466,3.0452,3.0575,3.0574,3.0573,0,3.0552,3.0531,3.0552,3.0546,3.0552,3.0541,3.0538,3.0572,3.0567,3.0575,3.0558,3.0551,3.0547,3.0528,3.0546,3.0541,3.0555,3.0511,3.0554,3.0546,3.0555,3.0556,3.0554,3.0501,3.05,3.0499,3.0498,0,3.0439,3.0455,3.0449,3.0449,3.0445,3.0446,3.0449,3.0442,3.0478,3.0471,3.0461,3.0458,3.0452,3.0444,3.0444,3.0451,3.048,3.0484,3.0476,3.0466,3.0458,3.0463,3.0598,3.0487,3.0488,3.0489,3.0489,3.049,3.0353,3.0337,3.0351,3.0344,3.0351,3.0354,3.0341,3.0359,3.0352,3.035,3.0371,3.0357,3.0367,3.037,3.0374,3.0364,3.0384,3.0372,3.0369,3.0365,3.0359,3.0461,3.0364,3.0364,3.0365,3.0365,3.0365,0,3.0243,3.0255,3.0248,3.0254,3.0248,3.0279,3.0285,3.0278,3.0267,3.0274,3.027,3.026,3.0254,3.0273,3.027,3.0258,3.0271,3.0256,3.0257,3.0258,3.0341,3.0349,3.0245,3.0245,3.0245,3.0245,3.0245,3.0245,3.0185,3.016,3.0177,3.0156,3.0168,3.0156,3.0157,3.0161,3.0167,3.0155,3.015,3.0164,3.0176,3.0175,3.017,3.0176,3.0173,3.0153,3.0163,3.024,3.0252,3.0263,3.0271,3.0152,3.0152,3.0081,3.0081,3.008]}]]